Location: Heidgraben
(53.7081°N, 9.6576°E)
Time: 23:30:04
(UTC+00:00)

Cosmos 2333 Rocket - Pass Details

Date: 30 October 2020
Orbit: 841 x 861 km, 70.8° (Epoch: 28 November)

Event Time Altitude Azimuth Distance (km) Brightness Sun altitude
Rises 05:27:23 0° 327° (NNW) 3,423 4.9 -7.9°
Reaches altitude 10° 05:29:52 10° 330° (NNW) 2,481 4.2 -7.6°
Maximum altitude 05:35:33 68° 54° (NE) 913 2.6 -6.8°
Drops below altitude 10° 05:41:10 10° 137° (SE) 2,458 5.7 -6.0°
Sets 05:43:37 0° 140° (SE) 3,388 6.4 -5.6°
